DW6178 Weather Reports


Display with metric or nautical units.
time (UTC)temp
F
wind
direction
speed
MPH
gust
MPH
rain 1hr
in
rain 24hr
in
rain mn
in
humidity
%
barometer
mb
20260901110036 59 205 1.0 3.0 0.00 0.00 0.00 22 1010.8
20260901104536 59 211 0.0 4.0 0.00 0.00 0.00 23 1010.8
20260901103035 59 195 1.0 4.0 0.00 0.00 0.00 23 1010.9
20260901101541 59 208 0.0 3.0 0.00 0.00 0.00 24 1010.9
20260901100032 59 200 1.0 3.0 0.00 0.00 0.00 25 1011.0
20260901094530 59 201 0.0 2.0 0.00 0.00 0.00 25 1011.0
20260901093028 58 184 0.0 1.0 0.00 0.00 0.00 25 1010.9
20260901091511 59 195 0.0 3.0 0.00 0.00 0.00 25 1011.0
20260901090010 59 197 0.0 3.0 0.00 0.00 0.00 26 1011.0
20260901084605 59 203 0.0 3.0 0.00 0.00 0.00 26 1011.0
20260901083050 59 172 0.0 3.0 0.00 0.00 0.00 26 1011.0
20260901081527 60 181 0.0 3.0 0.00 0.00 0.00 26 1011.1
20260901080027 60 204 0.0 3.0 0.00 0.00 0.00 25 1011.1
20260901074518 60 212 1.0 3.0 0.00 0.00 0.00 25 1011.3
20260901073023 60 193 2.0 4.0 0.00 0.00 0.00 25 1011.4
20260901071551 60 167 0.0 4.0 0.00 0.00 0.00 25 1011.5
20260901070050 61 203 1.0 2.0 0.00 0.00 0.00 23 1011.4
20260901064537 61 191 0.0 1.0 0.00 0.00 0.00 22 1011.3
20260901063033 61 197 0.0 0.0 0.00 0.00 0.00 21 1011.2
20260901061516 59 197 0.0 0.0 0.00 0.00 0.00 22 1011.3
20260901060012 60 198 0.0 0.0 0.00 0.00 0.00 31 1011.3
20260901054554 61 197 0.0 1.0 0.00 0.00 0.00 27 1011.3
20260901053118 60 197 0.0 0.0 0.00 0.00 0.00 20 1011.3
20260901051536 60 197 0.0 0.0 0.00 0.00 0.00 21 1011.1
20260901050035 60 197 0.0 0.0 0.00 0.00 0.00 21 1011.1
20260901044515 60 197 0.0 0.0 0.00 0.00 0.00 22 1011.1
20260901043015 60 197 0.0 0.0 0.00 0.00 0.00 23 1011.1
20260901041656 60 197 0.0 0.0 0.00 0.00 0.00 23 1011.0
20260901034540 61 198 0.0 0.0 0.00 0.00 0.00 25 1010.5
20260901033037 62 198 0.0 1.0 0.00 0.00 0.00 26 1010.2
20260901031548 62 198 0.0 1.0 0.00 0.00 0.00 25 1009.9
20260901030036 63 214 0.0 1.0 0.00 0.00 0.00 21 1009.7
20260901024535 63 221 0.0 2.0 0.00 0.00 0.00 22 1009.5
20260901023040 63 248 0.0 1.0 0.00 0.00 0.00 29 1009.1
20260901021534 63 235 0.0 1.0 0.00 0.00 0.00 27 1008.9
20260901020036 64 207 0.0 2.0 0.00 0.00 0.00 33 1008.7
20260901014515 64 217 1.0 4.0 0.00 0.00 0.00 37 1008.6
20260901013016 64 194 1.0 4.0 0.00 0.00 0.00 53 1008.6
20260901011558 64 199 1.0 4.0 0.00 0.00 0.00 61 1008.7
20260901010057 65 207 2.0 6.0 0.00 0.00 0.00 60 1008.8
20260901004539 65 191 2.0 5.0 0.00 0.00 0.00 59 1008.8
20260901003038 65 201 3.0 7.0 0.00 0.00 0.00 60 1008.8
20260901001526 66 197 2.0 8.0 0.00 0.00 0.00 61 1009.0
20260901000024 67 195 3.0 6.0 0.00 0.00 0.00 61 1009.1
20260831234524 67 195 2.0 8.0 0.00 0.00 0.00 61 1009.0
20260831233023 67 190 3.0 9.0 0.00 0.00 0.00 61 1009.0
20260831231523 68 201 2.0 7.0 0.00 0.00 0.00 61 1009.0
20260831230021 68 236 2.0 8.0 0.00 0.00 0.00 60 1009.2
20260831224521 69 185 3.0 8.0 0.00 0.00 0.00 60 1009.2
20260831223020 69 165 3.0 9.0 0.00 0.00 0.00 60 1009.3
20260831221504 70 142 4.0 8.0 0.00 0.00 0.00 58 1009.4
20260831220001 71 162 2.0 7.0 0.00 0.00 0.00 58 1009.5
20260831214558 72 160 3.0 6.0 0.00 0.00 0.00 56 1009.6
20260831213056 73 165 1.0 9.0 0.00 0.00 0.00 52 1009.8
20260831211602 72 240 1.0 9.0 0.00 0.00 0.00 49 1010.0
20260831210050 72 190 4.0 8.0 0.00 0.00 0.00 49 1010.2
20260831204548 72 153 2.0 8.0 0.00 0.00 0.00 47 1010.3
20260831203048 73 203 2.0 8.0 0.00 0.00 0.00 45 1010.3
20260831201547 72 194 3.0 8.0 0.00 0.00 0.00 43 1010.3
20260831200042 72 174 2.0 8.0 0.00 0.00 0.00 44 1010.4
20260831194615 71 195 4.0 9.0 0.00 0.00 0.00 43 1010.5
20260831193022 71 215 3.0 6.0 0.00 0.00 0.00 44 1010.6
20260831191522 71 212 4.0 7.0 0.00 0.00 0.00 44 1010.6
20260831190002 71 144 2.0 6.0 0.00 0.00 0.00 47 1010.6
20260831184501 71 195 3.0 6.0 0.00 0.00 0.00 46 1010.6
20260831183046 70 190 3.0 8.0 0.00 0.00 0.00 42 1010.6
20260831181540 69 208 1.0 5.0 0.00 0.00 0.00 40 1010.5
20260831180033 69 172 2.0 7.0 0.00 0.00 0.00 43 1010.4
20260831174549 70 177 1.0 6.0 0.00 0.00 0.00 41 1010.4
20260831173031 70 208 2.0 8.0 0.00 0.00 0.00 44 1010.4
20260831171540 69 237 1.0 7.0 0.00 0.00 0.00 48 1010.3
20260831170055 68 248 1.0 4.0 0.00 0.00 0.00 48 1010.1
20260831164531 68 237 0.0 6.0 0.00 0.00 0.00 47 1010.0
20260831163005 67 233 2.0 7.0 0.00 0.00 0.00 44 1009.9
20260831161503 67 203 0.0 4.0 0.00 0.00 0.00 47 1009.9
20260831160044 66 210 0.0 5.0 0.00 0.00 0.00 49 1009.9
20260831154544 65 246 0.0 2.0 0.00 0.00 0.00 47 1009.9
20260831153020 65 257 0.0 2.0 0.00 0.00 0.00 45 1009.9
20260831151525 64 214 0.0 6.0 0.00 0.00 0.00 43 1010.0
20260831150059 64 248 0.0 3.0 0.00 0.00 0.00 40 1009.9
20260831144557 63 258 0.0 5.0 0.00 0.00 0.00 36 1009.8
20260831143038 63 246 0.0 3.0 0.00 0.00 0.00 25 1009.7
20260831141533 63 224 0.0 0.0 0.00 0.00 0.00 19 1009.5
20260831140022 63 269 0.0 0.0 0.00 0.00 0.00 20 1009.3
20260831134511 63 248 0.0 0.0 0.00 0.00 0.00 19 1009.1
20260831133051 63 257 0.0 6.0 0.00 0.00 0.00 16 1008.8
20260831131551 63 283 0.0 1.0 0.00 0.00 0.00 16 1008.6
20260831130032 63 233 0.0 1.0 0.00 0.00 0.00 15 1008.5
20260831124535 63 261 0.0 1.0 0.00 0.00 0.00 15 1008.4
20260831123012 62 146 0.0 4.0 0.00 0.00 0.00 16 1008.2
20260831121516 63 250 0.0 1.0 0.00 0.00 0.00 16 1008.2
20260831120052 63 290 0.0 2.0 0.00 0.00 0.00 16 1008.2
20260831114552 62 250 0.0 3.0 0.00 0.00 0.00 16 1008.2
20260831113035 62 293 0.0 1.0 0.00 0.00 0.00 18 1008.1
20260831111533 62 256 0.0 2.0 0.00 0.00 0.00 19 1008.3